Lapse_Rate
3.3 6.5 9.9 9.4 6.6 6.5 6.5 6.5 6.5 6.5 6.5 7.4 7.7 7.1 6.6 7.2 6.5 6.5 9.3 9.4 9.7 9.8 8.0 4.4 3.3 3.9 4.2 4.4 4.6 5.1 5.6 5.7 6.0 6.2 6.3 6.5 6.3 6.3 5.9 6.1 6.1 6.2 6.3 5.9 5.5 5.7 5.2 4.8 4.1
9.6 9.0 9.6 8.0 6.5 6.5 6.5 6.5 6.5 6.5 7.0 7.7 7.6 7.5 6.9 6.5 8.2 8.4 8.8 7.5 9.8 9.9 9.0 8.4 3.3 4.1 4.5 4.4 4.7 5.2 5.7 5.9 6.2 6.3 6.7 6.7 6.4 6.1 5.6 5.7 6.6 6.4 6.0 6.0 6.3 5.9 5.0 4.3 4.1
9.8 9.8 8.1 6.5 6.5 6.5 6.5 6.5 6.5 6.7 7.6 7.5 7.1 7.9 7.5 7.0 8.4 8.7 8.9 6.9 9.9 9.9 9.7 8.9 3.6 4.2 4.6 4.4 4.8 5.3 5.6 6.1 6.1 6.2 6.6 6.7 6.7 6.4 5.3 6.8 7.4 6.4 6.0 5.8 6.4 5.7 5.1 4.1 3.9
9.6 9.1 8.3 6.5 6.5 6.5 6.5 6.5 6.6 6.6 7.4 7.8 7.7 6.5 8.1 8.8 8.7 9.1 6.3 6.7 9.8 9.9 9.8 3.5 3.5 4.2 4.7 4.6 5.1 5.5 5.9 6.4 6.2 6.4 6.9 5.6 6.7 6.4 6.4 5.7 6.2 6.5 5.8 6.6 6.8 5.0 4.3 3.7 3.6
9.6 8.3 6.5 6.5 6.5 6.5 6.5 7.0 7.2 6.5 6.8 7.2 7.6 6.7 7.3 8.6 8.4 7.6 7.0 8.9 9.6 9.8 9.8 6.0 3.7 4.5 4.6 4.9 5.5 5.7 5.9 5.8 5.1 5.6 6.0 6.3 5.7 5.4 5.1 5.7 5.7 5.9 6.7 6.2 4.9 4.1 4.2 3.6 3.6
7.8 7.8 6.5 6.5 6.5 6.5 6.5 7.5 7.3 6.9 7.3 7.4 7.2 7.2 7.6 7.4 8.4 9.0 9.5 9.6 9.7 9.6 9.7 8.5 4.3 4.6 4.7 5.2 5.4 5.5 5.4 5.5 4.6 5.9 6.3 5.7 5.3 5.4 5.3 5.5 5.3 6.5 5.5 4.4 4.4 4.4 3.9 3.8 3.8
7.0 6.5 6.5 6.5 6.5 6.5 6.5 7.6 6.8 6.8 6.9 7.0 8.0 6.5 7.8 8.3 9.2 9.4 9.6 9.7 9.7 9.8 9.6 8.7 7.8 5.8 4.7 5.0 5.4 5.5 5.5 5.6 5.8 6.2 5.9 5.9 5.2 4.9 5.7 6.2 6.3 5.1 4.2 4.4 4.2 4.0 4.0 3.9 3.8
8.2 6.5 6.5 6.5 6.5 6.5 6.7 7.2 7.8 7.3 6.9 8.4 8.3 6.5 6.8 8.6 9.1 9.6 9.8 9.6 9.6 8.2 7.6 7.9 7.6 7.4 7.7 6.7 5.3 5.5 5.1 5.9 6.2 5.9 5.7 5.5 4.6 3.8 4.3 4.7 4.5 4.1 4.5 4.3 4.4 4.3 4.1 3.9 3.7
8.6 6.5 6.5 6.5 6.5 6.5 7.2 6.6 7.7 8.2 7.7 7.9 8.2 8.1 8.5 8.9 7.6 9.3 9.4 9.4 7.5 6.3 7.3 7.0 7.7 8.0 8.8 7.1 6.1 5.1 5.2 5.8 6.2 5.6 5.4 5.9 7.4 6.7 5.5 7.1 3.9 4.0 4.3 4.6 4.6 4.4 4.1 3.7 3.6
6.9 6.5 6.5 6.5 6.5 6.5 6.9 6.9 7.2 7.1 7.1 7.3 7.8 8.6 8.7 9.0 8.8 8.7 8.9 9.1 8.9 6.1 7.0 7.0 8.0 8.4 8.3 8.8 7.3 7.2 6.1 6.3 6.3 6.1 7.5 9.4 9.4 9.3 9.4 5.3 4.0 4.2 4.4 4.6 4.7 4.3 4.1 6.2 7.4
7.0 6.5 6.5 6.8 7.3 7.6 7.0 7.0 7.7 6.9 6.5 7.4 7.2 8.0 8.4 8.7 8.8 8.9 9.0 9.1 9.2 9.3 9.0 5.9 6.9 7.8 8.3 8.6 7.1 7.4 6.5 5.6 5.2 5.2 7.4 8.3 8.2 7.2 8.8 6.8 5.8 6.3 6.0 7.0 6.1 5.6 8.4 9.6 9.5
6.5 7.0 7.2 7.3 7.6 7.4 6.6 7.7 7.0 7.3 7.3 8.4 8.4 8.5 8.5 8.5 8.7 8.9 9.0 9.3 9.2 9.3 9.3 5.9 7.5 7.2 8.3 8.2 7.3 7.8 6.3 5.7 5.2 5.7 5.2 8.0 9.5 6.6 7.0 9.7 9.5 8.5 9.3 8.8 8.9 9.3 9.6 9.5 9.5
6.5 6.5 7.4 7.7 7.6 7.6 7.7 7.0 6.9 7.2 8.2 8.7 8.7 8.6 8.5 8.7 8.8 9.1 9.3 9.4 9.4 9.1 9.2 7.2 8.7 7.6 7.9 8.1 7.6 7.4 8.2 7.5 6.3 6.3 6.6 7.4 9.7 9.1 7.7 8.1 8.2 8.8 8.5 9.3 9.5 7.3 8.9 8.4 6.3
7.1 7.0 7.1 7.4 7.3 7.6 6.8 6.8 7.3 7.5 8.2 8.3 8.4 8.4 8.6 8.7 8.8 9.0 9.1 9.1 9.1 9.1 9.1 7.5 8.5 7.8 8.7 7.7 7.7 7.4 6.3 7.9 6.4 6.5 8.3 7.2 9.3 9.7 9.9 9.9 9.8 8.9 9.4 9.6 9.5 9.5 7.4 4.8 4.8
7.3 6.5 6.5 6.6 7.1 6.6 7.5 6.5 6.5 7.8 8.2 7.9 8.1 8.4 8.5 8.6 9.0 8.9 9.0 9.0 9.1 9.3 9.5 8.9 7.3 6.2 7.8 7.9 7.4 6.2 7.0 6.4 6.6 6.1 7.5 6.7 6.7 7.4 9.6 10.0 10.0 9.7 9.6 9.5 9.3 6.4 4.1 4.5 5.5
6.5 6.5 6.5 6.5 6.5 6.8 6.9 6.5 6.5 7.7 7.6 7.5 7.8 8.1 8.3 8.6 8.8 9.1 9.2 9.3 9.5 9.3 9.3 9.3 6.5 5.6 8.0 8.8 8.8 6.8 4.9 5.3 7.0 6.5 7.5 7.3 7.0 7.5 8.9 9.9 9.9 9.6 9.4 9.6 9.8 5.6 4.7 4.9 4.8
6.5 6.5 6.5 6.5 6.5 6.5 6.5 6.5 6.5 7.5 7.4 7.1 7.6 8.0 8.1 8.3 8.7 9.0 9.3 9.5 9.6 9.3 9.3 9.2 6.3 5.8 6.2 8.4 9.6 9.1 4.7 5.4 6.1 6.7 7.7 7.5 8.0 8.0 9.3 9.9 9.8 8.5 9.6 9.8 9.8 7.1 5.3 4.9 5.3
6.5 6.5 6.5 6.5 6.5 6.5 6.5 6.5 6.5 7.4 7.4 7.1 7.6 7.8 7.9 8.2 8.4 8.9 9.2 9.4 9.7 9.6 9.4 9.3 6.6 6.1 5.4 5.7 8.3 7.3 6.2 6.5 6.1 9.1 9.3 7.7 8.2 8.4 9.5 9.8 9.4 8.8 10.0 9.8 9.7 7.3 7.2 7.1 6.2
6.5 6.5 6.5 6.5 6.5 6.5 6.5 6.5 6.5 6.8 7.2 7.0 7.5 7.7 7.8 8.1 8.6 9.0 9.0 9.3 9.4 9.4 9.3 9.3 8.2 6.2 7.0 5.2 5.4 4.2 9.3 9.5 7.5 8.5 9.5 8.7 9.1 8.2 8.4 9.9 9.1 9.5 9.8 9.6 8.5 5.4 5.5 5.7 5.3
6.5 6.5 6.5 6.5 6.5 6.5 6.5 6.5 6.5 6.5 6.5 7.3 7.4 7.6 7.9 8.1 8.4 8.6 8.9 9.1 9.0 9.2 9.2 9.2 9.1 7.4 7.0 4.3 4.3 6.2 9.5 9.7 9.7 7.3 9.4 9.3 9.4 8.5 8.7 9.5 9.5 9.7 9.8 9.2 7.8 5.3 5.4 4.6 5.4
6.5 6.5 6.5 6.5 6.5 6.5 6.5 6.5 6.5 6.5 6.9 7.5 7.8 8.0 8.2 8.1 8.1 8.4 8.6 8.8 8.7 9.0 9.1 9.4 9.1 7.3 7.2 4.5 6.3 9.4 9.6 9.7 9.4 9.6 8.1 9.6 9.4 9.0 9.1 9.2 9.8 9.6 9.8 9.0 7.1 5.9 6.2 5.2 5.1
6.5 6.5 6.5 6.5 6.5 6.5 6.5 6.5 6.5 6.5 6.5 6.5 7.1 7.6 7.9 8.2 8.4 8.6 8.6 8.6 8.8 9.0 9.3 9.3 9.4 8.8 6.8 6.9 9.4 9.1 9.2 9.1 9.3 9.1 9.7 9.8 9.5 9.5 8.5 8.2 9.1 9.1 9.8 9.3 8.2 7.1 7.6 7.8 5.6
6.5 6.5 6.5 6.5 6.5 6.5 6.5 6.5 6.5 6.5 6.5 6.5 6.5 7.3 7.8 8.2 8.3 8.4 8.6 8.9 8.9 8.9 8.7 8.7 8.9 9.2 9.0 8.8 9.1 9.6 9.3 9.4 9.4 9.4 9.5 9.4 9.8 9.5 8.5 8.3 8.3 8.0 9.4 9.5 9.2 9.0 8.5 9.1 9.0
6.5 6.5 6.5 6.5 6.5 6.5 6.5 6.5 6.5 6.5 6.5 6.5 6.5 7.2 7.7 8.0 8.3 8.5 8.8 8.9 9.0 9.0 8.9 8.0 8.5 9.2 9.2 9.2 8.8 7.9 8.9 9.3 9.4 9.6 9.5 9.6 9.8 9.8 9.8 9.6 8.9 8.1 8.6 9.3 8.4 7.3 7.4 8.8 9.2
6.5 6.5 6.5 6.5 6.5 6.5 6.5 6.5 6.5 6.5 6.5 6.5 6.5 7.0 7.6 8.0 8.2 8.2 8.5 8.7 8.8 8.7 7.9 7.8 8.0 8.2 9.2 9.0 8.0 6.5 7.3 8.7 9.2 9.2 8.4 9.2 9.5 9.6 9.6 9.3 8.7 8.8 8.5 9.5 7.9 7.2 7.6 7.6 9.0
6.5 6.5 6.5 6.5 6.5 6.5 6.5 6.5 6.5 6.5 6.8 7.5 7.7 7.7 7.7 7.9 8.1 8.2 8.3 8.6 8.8 8.7 7.7 7.7 7.3 8.0 8.7 8.8 6.8 5.1 6.0 7.6 9.2 8.5 8.7 7.7 8.7 9.2 9.5 7.9 8.6 8.7 8.6 8.2 7.6 7.7 7.0 6.9 7.1
6.5 6.5 6.5 6.5 6.5 6.5 6.5 6.5 6.5 6.5 6.5 6.7 7.0 7.4 7.6 7.9 8.2 8.3 8.5 8.4 8.7 8.7 8.5 7.8 7.6 8.2 8.9 8.8 6.6 5.0 5.2 6.5 7.8 8.4 7.8 8.4 8.5 8.6 8.2 7.7 8.2 8.6 8.4 7.3 7.1 6.9 6.4 6.5 6.1
6.5 6.5 6.5 6.5 6.5 6.5 6.5 6.5 6.5 6.5 6.5 6.5 6.5 7.0 7.7 8.0 8.0 8.3 8.5 8.6 8.5 8.8 8.9 7.9 8.3 8.7 9.1 8.4 6.4 5.3 5.1 5.8 6.3 7.7 7.4 8.8 9.0 9.0 9.1 8.5 8.1 8.8 7.4 7.0 7.0 7.0 6.8 6.4 6.4
6.5 6.5 6.5 6.5 6.5 6.5 6.5 6.5 6.5 6.5 6.5 6.5 6.5 7.1 7.4 7.6 7.6 7.5 7.5 8.7 8.8 8.7 8.8 8.6 8.5 9.1 9.1 8.7 7.0 5.9 6.1 5.6 7.3 7.3 7.3 7.5 8.3 8.8 9.4 9.0 8.9 8.8 7.8 7.2 7.1 6.7 6.7 6.1 6.2
6.5 6.5 6.5 6.5 6.5 6.5 6.5 6.5 6.5 6.5 6.5 6.8 6.8 7.2 7.2 7.8 8.1 7.8 7.3 5.2 8.2 8.7 8.8 8.7 8.2 8.9 8.9 8.8 8.7 7.2 7.1 7.9 7.6 8.3 8.7 8.1 8.5 9.1 9.3 9.2 8.9 8.7 9.2 8.4 7.1 6.7 6.5 6.4 6.2
Wind_Speed
11 11 5 5 7 7 14 9 11 8 6 2 2 6 5 9 11 5 3 4 6 14 17 19 15 13 13 15 15 14 15 18 21 24 24 24 23 24 23 23 23 26 26 26 26 26 26 26 25
8 7 5 3 8 14 13 10 10 5 3 5 6 9 11 12 3 1 5 5 11 13 15 16 14 12 11 14 14 15 18 19 22 23 24 24 23 25 24 20 21 24 25 26 25 24 25 25 23
8 6 6 5 12 18 14 5 13 5 7 10 5 6 7 3 2 1 4 10 13 13 14 14 12 10 10 12 12 16 18 21 24 24 24 22 22 26 27 24 23 24 26 26 24 24 23 24 24
7 5 4 10 19 11 11 7 5 5 4 5 9 9 3 1 1 2 7 12 14 13 13 17 11 10 10 11 12 15 18 22 24 23 23 22 22 25 25 24 18 22 26 25 24 24 23 23 23
6 4 9 14 20 17 9 15 9 10 3 6 7 13 11 7 1 3 10 13 14 12 11 16 12 11 10 10 13 18 21 27 22 24 24 26 22 21 23 28 20 18 25 26 25 23 23 23 22
7 5 9 14 17 14 12 16 16 18 16 14 14 16 13 7 6 7 12 13 13 12 11 15 13 12 11 12 18 22 24 30 28 24 27 25 23 20 21 28 24 22 26 26 23 24 22 22 21
13 9 15 17 18 14 14 9 15 16 17 18 15 17 2 3 4 9 13 13 12 11 10 13 16 14 13 14 19 23 24 28 30 28 26 26 24 22 22 27 25 25 26 25 23 23 23 22 20
9 8 17 15 16 18 8 7 14 12 17 7 6 8 8 7 8 10 12 12 11 10 9 10 12 15 15 16 19 22 23 23 25 27 25 27 24 24 23 22 25 25 25 22 21 21 21 20 20
10 10 15 21 18 15 5 8 3 6 14 15 10 9 7 8 13 12 13 13 10 9 10 9 11 13 15 17 20 24 24 25 25 26 27 28 21 23 25 22 22 25 23 21 19 21 22 21 20
12 14 21 17 12 17 16 14 11 11 13 13 16 14 2 8 12 16 16 14 15 13 13 9 11 12 14 16 21 22 23 20 19 22 25 21 21 21 21 22 22 22 22 22 21 23 27 24 20
11 22 17 16 14 17 18 19 13 17 20 20 16 14 6 11 13 14 16 17 17 15 12 12 11 11 14 11 12 14 16 15 12 11 12 16 20 16 21 22 20 21 20 19 21 22 21 18 17
16 18 17 20 17 15 19 20 22 19 24 22 18 12 9 12 13 13 16 18 19 19 17 15 15 11 12 13 8 14 9 15 13 15 10 13 15 15 13 18 21 19 18 17 20 20 14 15 14
20 20 18 18 17 17 19 24 25 29 22 23 21 20 18 16 16 14 14 17 18 18 17 16 15 15 13 11 8 9 10 13 18 17 21 15 15 11 16 16 16 14 16 16 15 13 14 13 15
13 13 17 16 17 18 18 24 22 28 13 22 24 25 21 21 18 15 15 18 19 19 19 18 17 14 15 11 12 9 9 15 16 16 20 19 17 16 15 14 16 16 18 16 16 16 14 11 13
15 20 19 20 21 19 18 27 33 28 24 23 21 20 23 23 20 20 18 21 22 20 21 20 18 16 14 12 13 8 12 9 11 15 21 17 17 18 17 12 11 17 18 16 16 15 13 11 13
20 20 19 13 5 12 13 25 21 8 13 22 21 20 21 23 20 21 20 21 22 21 22 22 17 18 17 16 14 9 9 7 11 15 20 21 19 20 18 10 11 17 16 15 12 9 10 9 9
15 18 17 15 9 13 14 25 14 2 5 10 16 19 16 19 19 20 21 21 22 24 22 23 20 21 16 15 13 12 11 5 9 13 17 21 21 22 17 12 14 18 14 11 10 10 10 9 8
15 17 17 18 6 8 19 26 20 20 21 15 16 15 15 17 16 19 21 21 22 24 20 23 17 20 17 11 12 10 11 9 10 14 17 23 21 22 18 15 15 17 10 10 10 11 10 10 10
19 21 25 22 20 22 23 26 24 21 20 18 21 20 19 18 14 14 20 21 22 23 24 23 23 19 15 11 11 10 12 13 12 8 21 24 22 22 18 13 13 15 11 12 13 11 13 9 11
16 21 25 21 15 12 18 25 24 25 28 25 24 22 23 20 19 16 18 21 23 25 25 25 23 19 19 12 11 12 12 13 13 9 13 23 23 23 19 13 14 14 11 13 13 14 10 7 10
19 19 19 19 18 22 23 28 27 30 29 27 25 28 25 25 22 20 19 22 22 23 25 24 25 22 21 21 14 13 13 12 12 14 11 16 24 24 22 19 14 14 12 11 13 14 14 9 11
17 14 19 20 16 15 13 18 19 15 16 20 26 25 27 26 25 22 21 22 25 23 23 23 23 25 23 24 19 22 16 16 14 14 15 16 23 21 23 21 18 15 12 14 14 13 12 10 12
16 20 24 24 20 19 24 13 18 16 17 21 21 25 27 27 25 24 23 23 25 22 20 20 23 25 25 24 21 17 18 15 14 14 17 18 18 22 23 22 18 15 13 14 15 15 14 11 11
15 24 24 22 16 13 27 17 17 16 21 21 19 18 23 25 24 22 22 21 22 22 20 20 22 23 24 24 23 22 20 18 15 16 14 14 14 14 19 20 15 15 15 15 14 15 16 13 12
22 19 8 7 7 13 12 11 18 18 18 19 12 15 12 18 22 19 21 20 22 24 22 20 22 23 24 25 24 22 20 19 19 18 15 17 13 13 16 18 16 14 14 15 14 15 15 15 13
14 12 6 8 9 13 18 7 6 25 27 26 24 22 12 14 12 16 19 20 22 24 22 21 22 23 24 25 23 21 21 14 14 17 14 14 14 15 18 17 17 18 17 14 14 12 12 14 13
10 14 17 7 18 13 10 12 21 28 26 26 25 22 19 18 16 14 15 14 21 21 24 22 23 27 26 25 21 21 20 20 17 18 16 14 16 14 17 18 19 18 18 18 16 12 14 14 15
12 10 8 6 6 7 6 8 13 28 28 28 27 24 23 21 20 18 15 14 13 20 22 22 24 27 25 24 21 20 21 21 19 17 18 17 17 18 18 19 19 19 18 18 17 14 15 15 12
9 9 6 7 7 5 7 6 14 21 19 26 26 24 22 22 19 17 16 13 13 15 20 20 22 23 21 22 20 19 18 19 18 17 18 18 17 18 19 20 21 20 19 19 17 16 15 17 15
9 10 10 7 6 7 7 4 19 22 19 22 25 20 20 19 18 16 16 16 15 16 19 19 19 21 22 21 19 17 17 17 17 17 17 16 17 17 19 19 18 18 18 19 19 18 15 16 17
Wind_Direction
162 183 203 225 237 236 255 247 261 239 238 252 304 231 285 324 296 337 91 104 140 152 149 163 169 164 162 159 160 168 177 171 166 151 148 142 137 132 126 127 134 134 130 125 118 121 126 126 118
175 175 207 228 247 240 242 226 232 254 288 301 235 251 256 282 327 232 159 140 163 150 152 163 164 165 172 167 158 167 175 173 166 154 150 143 135 126 114 120 130 126 123 117 121 127 125 122 117
184 222 230 231 241 247 262 201 251 289 283 255 255 236 291 274 164 10 88 153 167 157 162 145 164 163 155 151 154 168 177 174 161 156 148 140 137 129 134 142 126 124 118 117 124 129 126 119 116
178 198 231 244 248 243 281 266 244 271 217 227 260 268 174 31 311 78 137 153 161 161 166 135 157 152 155 153 153 164 173 169 159 153 141 140 144 146 136 127 128 121 124 129 132 129 122 119 120
218 241 242 244 255 260 220 259 273 263 243 251 272 274 263 157 239 154 148 161 159 158 161 158 153 150 147 145 141 150 156 147 139 141 153 147 138 142 155 145 137 141 130 129 129 127 128 124 122
207 268 237 247 255 251 241 256 267 264 263 263 276 269 271 92 173 167 160 162 155 157 160 149 153 143 131 132 135 141 146 151 156 151 144 138 136 137 143 152 150 151 127 125 129 133 128 124 126
251 228 253 262 270 269 256 263 254 261 264 263 265 275 322 167 159 164 162 159 162 154 161 158 162 147 128 133 140 138 141 143 145 141 138 134 131 127 125 135 136 127 126 134 133 132 132 130 131
250 261 259 251 259 265 308 245 257 268 263 270 275 259 271 93 149 155 159 161 160 152 159 158 158 163 152 145 138 133 126 132 137 133 135 133 126 125 121 124 127 129 136 135 134 134 133 131 129
243 246 246 251 258 270 198 265 199 276 269 247 235 270 5 134 153 163 168 164 167 164 167 161 167 167 155 148 142 133 136 139 136 131 134 140 143 146 145 139 134 138 140 139 136 134 134 127 126
224 234 251 276 280 275 281 278 283 279 265 246 244 236 163 176 179 180 184 180 180 171 173 168 176 163 162 151 156 148 138 134 137 146 150 155 147 150 144 136 133 133 137 142 142 140 140 147 141
231 247 274 260 262 275 280 279 269 267 259 253 251 261 229 215 202 200 198 191 183 183 162 169 179 169 168 146 159 150 145 134 126 122 142 140 143 135 147 146 144 147 149 158 154 149 166 152 149
253 252 256 268 267 270 272 283 274 260 258 269 277 280 285 219 216 214 207 195 184 185 172 174 186 169 186 150 172 155 149 142 149 149 128 155 148 149 152 158 156 158 166 161 160 172 165 159 145
250 259 260 262 258 264 273 268 271 263 259 266 266 267 253 233 238 228 221 202 189 187 181 182 180 175 176 176 162 165 163 161 155 157 159 168 157 152 161 158 160 165 156 170 159 142 155 129 119
275 271 264 258 256 256 259 266 268 259 260 253 256 254 251 249 235 229 215 203 198 190 185 184 174 187 179 176 171 169 166 164 160 165 167 166 163 164 164 166 161 172 170 158 150 154 130 126 128
278 272 266 256 254 243 250 260 250 259 248 257 254 247 246 243 235 229 210 206 196 195 184 187 182 181 186 174 172 158 172 187 163 161 165 166 160 170 163 168 167 164 159 153 141 112 124 132 130
267 266 267 265 269 231 223 254 255 324 254 239 254 250 247 242 231 224 213 210 198 196 188 186 186 181 188 188 173 163 155 168 169 160 167 170 167 172 172 163 166 160 155 158 149 144 143 137 130
237 262 270 269 243 252 228 265 285 235 320 261 255 261 246 249 231 220 211 205 198 199 187 187 187 185 182 186 183 169 162 167 170 166 168 178 175 172 173 172 163 163 163 160 159 147 144 138 135
318 299 291 281 262 288 283 270 266 272 274 268 279 277 270 255 239 220 215 204 201 199 189 185 183 185 179 172 178 177 176 176 187 177 177 177 178 176 179 169 163 173 166 164 157 153 153 150 142
288 280 277 278 281 278 269 272 273 276 272 259 263 264 264 261 245 224 214 204 201 198 192 191 183 185 178 171 173 172 184 183 180 200 177 179 179 180 182 169 172 180 173 170 160 149 151 143 140
297 283 279 290 281 268 271 268 261 256 257 259 261 261 259 259 250 232 212 205 198 198 196 193 185 187 187 175 176 183 187 186 185 180 188 184 181 182 183 176 179 185 176 169 158 163 151 148 171
321 298 288 293 311 284 271 269 262 256 256 258 256 255 254 253 249 238 215 202 195 201 196 196 188 184 190 183 181 194 186 183 187 183 180 192 187 184 187 183 186 184 183 172 171 176 175 162 188
313 325 313 295 292 275 283 278 270 281 264 249 241 247 245 247 240 242 213 202 202 202 198 197 190 187 190 191 187 191 187 187 188 187 188 188 190 188 188 188 189 186 188 181 186 185 189 175 181
307 310 289 284 269 269 265 255 271 270 257 256 254 245 249 246 247 234 228 207 202 203 196 194 193 194 191 191 191 189 192 193 183 184 188 190 191 194 192 189 190 190 193 191 193 190 199 190 191
320 312 284 254 250 259 255 252 271 258 261 262 267 260 252 248 254 246 233 213 200 197 200 192 195 197 192 194 194 190 193 192 183 183 186 190 190 196 195 192 192 194 197 194 196 199 200 202 205
337 344 321 246 190 248 271 239 256 278 278 286 308 305 324 315 260 255 240 211 211 199 193 193 195 194 195 195 194 192 191 196 189 184 182 185 191 193 193 194 194 195 199 198 200 202 207 210 210
318 341 328 305 311 312 309 243 41 13 8 3 349 332 308 303 322 294 245 218 214 207 191 193 192 197 192 196 197 190 190 195 193 190 187 190 192 192 192 195 194 199 199 203 202 206 210 211 215
338 342 312 263 257 261 245 320 43 1 2 356 344 342 336 331 324 314 296 278 211 210 195 199 193 199 197 196 195 193 190 195 194 192 197 193 192 188 193 194 197 199 202 203 201 209 208 209 212
320 328 334 339 286 299 336 62 4 358 355 354 348 339 338 335 331 323 301 270 260 216 210 192 203 206 198 194 196 195 193 195 194 194 196 195 195 196 191 195 199 199 201 204 206 209 210 210 213
327 349 333 289 258 297 326 65 5 351 348 354 347 340 336 332 337 334 332 283 257 247 216 196 198 209 201 197 197 196 197 195 196 197 196 198 196 194 193 198 200 201 201 201 206 210 212 211 212
343 346 332 293 290 294 268 101 9 350 344 357 347 335 335 343 345 347 348 353 323 231 211 210 198 207 204 198 197 201 196 197 198 200 201 196 196 198 200 200 202 204 205 204 206 208 209 210 213